UAE061 OMDB-EDDH

Flight info

Callsign UAE061
Flight time N/A
Altitude 37000
Route ANVIX L223 TARDI N629 BOTAM Y855 LAKLU/N0496F360 Q204 NALKI G652 TOKRA DCT ALROK DCT BOSOB DCT ITRUX Y511 ASMUN/N0500F380 Y511 PMA Z712 WEJ L677 GESON Q777 RASDA DCT OTHON DCT VAXOS DCT RDS UL609 MES DCT EVIVI L863 OKANA DCT BABIT/N0483F400 DCT ARSIN DCT DITIS DCT KILNU DCT ABGUS DCT DIRBO/N0394F230 T902 RARUP RARUP3S
Aircraft A388/J-SADE2E3FGHIJ3J4J5M1RWXY/LB1D1

Departure

Time 2026-04-23 14:33
Airport Dubai International Airport (OMDB)

Arrival

Time N/A
Airport Hamburg Helmut Schmidt Airport (EDDH)
Time Latitude Longitude Altitude Speed Heading
2026-04-23 13:45 25.24269 55.37092 12 ft 0 kts 30°
2026-04-23 14:19 25.24258 55.37085 39 ft 4 kts 30°
2026-04-23 14:19 25.24234 55.37070 38 ft 4 kts 31°
2026-04-23 14:19 25.24213 55.37055 36 ft 4 kts 43°
2026-04-23 14:20 25.24205 55.37038 36 ft 4 kts 90°
2026-04-23 14:20 25.24212 55.37016 35 ft 4 kts 130°
2026-04-23 14:20 25.24224 55.36998 36 ft 1 kts 122°
2026-04-23 14:20 25.24226 55.36996 36 ft 0 kts 122°
2026-04-23 14:25 25.24217 55.37010 39 ft 6 kts 123°
2026-04-23 14:26 25.24180 55.37077 40 ft 14 kts 121°
2026-04-23 14:26 25.24123 55.37182 41 ft 17 kts 121°
2026-04-23 14:26 25.24062 55.37296 43 ft 17 kts 120°
2026-04-23 14:26 25.23999 55.37411 45 ft 18 kts 120°
2026-04-23 14:27 25.23981 55.37536 46 ft 16 kts 65°
2026-04-23 14:27 25.24047 55.37625 47 ft 14 kts 35°
2026-04-23 14:27 25.24132 55.37683 47 ft 14 kts 31°
2026-04-23 14:27 25.24217 55.37740 47 ft 14 kts 31°
2026-04-23 14:28 25.24297 55.37792 47 ft 7 kts 31°
2026-04-23 14:28 25.24318 55.37807 47 ft 5 kts 33°
2026-04-23 14:28 25.24331 55.37817 47 ft 0 kts 33°
2026-04-23 14:29 25.24342 55.37825 47 ft 0 kts 35°
2026-04-23 14:29 25.24396 55.37866 45 ft 17 kts 33°
2026-04-23 14:30 25.24490 55.37934 47 ft 15 kts 33°
2026-04-23 14:30 25.24570 55.37996 45 ft 13 kts 35°
2026-04-23 14:30 25.24626 55.38038 46 ft 0 kts 33°
2026-04-23 14:31 25.24634 55.38044 47 ft 4 kts 32°
2026-04-23 14:31 25.24672 55.38069 48 ft 9 kts 29°
2026-04-23 14:31 25.24733 55.38103 48 ft 9 kts
2026-04-23 14:32 25.24783 55.38064 46 ft 10 kts 298°
2026-04-23 14:32 25.24846 55.37948 44 ft 41 kts 301°
2026-04-23 14:32 25.25001 55.37675 44 ft 87 kts 302°
2026-04-23 14:32 25.25439 55.36917 37 ft 142 kts 301°
2026-04-23 14:33 25.26015 55.35872 50 ft 171 kts 303°
2026-04-23 14:33 25.26596 55.34733 459 ft 170 kts 303°
2026-04-23 14:33 25.27163 55.33579 911 ft 171 kts 302°
2026-04-23 14:33 25.27733 55.32427 1281 ft 174 kts 302°
2026-04-23 14:34 25.28301 55.31257 1714 ft 173 kts 300°
2026-04-23 14:34 25.28731 55.30019 2209 ft 171 kts 283°
2026-04-23 14:34 25.28808 55.28671 2619 ft 184 kts 269°
2026-04-23 14:34 25.28477 55.27232 2929 ft 205 kts 252°
2026-04-23 14:35 25.27925 55.25722 3223 ft 225 kts 249°
2026-04-23 14:35 25.27317 55.24191 3621 ft 236 kts 248°
2026-04-23 14:35 25.26628 55.22545 4349 ft 233 kts 246°
2026-04-23 14:35 25.25944 55.20938 5059 ft 231 kts 245°
2026-04-23 14:36 25.25250 55.19315 5688 ft 234 kts 244°
2026-04-23 14:36 25.24434 55.17777 6319 ft 235 kts 226°
2026-04-23 14:36 25.23077 55.16821 6919 ft 239 kts 198°
2026-04-23 14:36 25.21388 55.16711 7527 ft 245 kts 177°
2026-04-23 14:37 25.19677 55.16992 7895 ft 260 kts 164°
2026-04-23 14:37 25.18100 55.18057 8515 ft 269 kts 136°
2026-04-23 14:37 25.17069 55.19791 9115 ft 277 kts 120°
2026-04-23 14:37 25.16175 55.21745 9363 ft 296 kts 120°
2026-04-23 14:38 25.15239 55.23794 9897 ft 301 kts 120°
2026-04-23 14:38 25.14282 55.25851 10456 ft 303 kts 121°
2026-04-23 14:38 25.13302 55.27916 11049 ft 306 kts 121°
2026-04-23 14:38 25.12314 55.29980 11639 ft 308 kts 121°
2026-04-23 14:39 25.11301 55.32084 12235 ft 310 kts 121°
2026-04-23 14:39 25.10326 55.34214 12797 ft 315 kts 117°
2026-04-23 14:39 25.09430 55.36441 13373 ft 317 kts 118°
2026-04-23 14:39 25.08515 55.38672 13909 ft 320 kts 118°
2026-04-23 14:40 25.07586 55.40917 14395 ft 324 kts 118°
2026-04-23 14:40 25.06649 55.43201 14734 ft 333 kts 117°
2026-04-23 14:40 25.05706 55.45623 14808 ft 352 kts 116°
2026-04-23 14:40 25.04748 55.48140 14806 ft 372 kts 115°
2026-04-23 14:41 25.03731 55.50815 14806 ft 380 kts 115°
2026-04-23 14:41 25.02705 55.53506 14807 ft 381 kts 115°
2026-04-23 14:41 25.01627 55.56079 14811 ft 379 kts 122°
2026-04-23 14:41 25.00317 55.58480 14983 ft 379 kts 124°
2026-04-23 14:42 24.98955 55.60978 15429 ft 381 kts 123°
2026-04-23 14:42 24.97596 55.63496 15893 ft 386 kts 123°
2026-04-23 14:42 24.96222 55.66045 16354 ft 390 kts 123°
2026-04-23 14:42 24.94825 55.68636 16801 ft 394 kts 123°
2026-04-23 14:43 24.93326 55.71166 17220 ft 396 kts 129°
2026-04-23 14:43 24.91672 55.73626 17660 ft 400 kts 129°
2026-04-23 14:43 24.90017 55.76115 18090 ft 404 kts 128°
2026-04-23 14:43 24.88376 55.78593 18464 ft 408 kts 128°
2026-04-23 14:44 24.86699 55.81127 18880 ft 410 kts 128°
2026-04-23 14:44 24.85024 55.83654 19252 ft 413 kts 128°
2026-04-23 14:44 24.83316 55.86227 19660 ft 416 kts 129°
2026-04-23 14:44 24.81582 55.88798 20054 ft 418 kts 129°
2026-04-23 14:45 24.79834 55.91369 20419 ft 421 kts 129°
2026-04-23 14:45 24.78031 55.93870 20763 ft 422 kts 135°
2026-04-23 14:45 24.75920 55.96149 21154 ft 422 kts 141°
2026-04-23 14:45 24.73759 55.98341 21534 ft 424 kts 141°
2026-04-23 14:46 24.71601 56.00554 21899 ft 427 kts 140°
2026-04-23 14:46 24.69402 56.02816 22280 ft 430 kts 140°
2026-04-23 14:46 24.67237 56.05044 22629 ft 432 kts 140°
2026-04-23 14:46 24.65009 56.07341 22995 ft 435 kts 140°
2026-04-23 14:47 24.62834 56.09582 23358 ft 437 kts 140°
2026-04-23 14:47 24.60599 56.11882 23672 ft 440 kts 140°
2026-04-23 14:47 24.58359 56.14185 23975 ft 442 kts 140°
2026-04-23 14:47 24.56215 56.16578 24270 ft 448 kts 134°
2026-04-23 14:48 24.54167 56.19223 24560 ft 450 kts 133°
2026-04-23 14:48 24.52116 56.21850 24834 ft 453 kts 134°
2026-04-23 14:48 24.50043 56.24492 25118 ft 456 kts 134°
2026-04-23 14:48 24.47973 56.27124 25414 ft 458 kts 134°
2026-04-23 14:49 24.45911 56.29745 25716 ft 462 kts 133°
2026-04-23 14:49 24.43803 56.32426 26036 ft 464 kts 133°
2026-04-23 14:49 24.41678 56.35126 26369 ft 467 kts 133°
2026-04-23 14:49 24.39546 56.37834 26694 ft 471 kts 133°
2026-04-23 14:50 24.37391 56.40570 27036 ft 474 kts 133°
2026-04-23 14:50 24.35228 56.43313 27379 ft 477 kts 133°
2026-04-23 14:50 24.33051 56.46073 27727 ft 481 kts 133°
2026-04-23 14:50 24.30847 56.48867 28075 ft 484 kts 133°
2026-04-23 14:51 24.28752 56.51756 28388 ft 489 kts 128°
2026-04-23 14:51 24.26782 56.54764 28751 ft 493 kts 128°
2026-04-23 14:51 24.24737 56.57858 29134 ft 496 kts 128°
2026-04-23 14:51 24.22705 56.60918 29480 ft 499 kts 128°
2026-04-23 14:52 24.20652 56.64005 29883 ft 502 kts 128°
2026-04-23 14:52 24.18592 56.67101 30238 ft 504 kts 128°
2026-04-23 14:52 24.16520 56.70213 30624 ft 506 kts 128°
2026-04-23 14:52 24.14481 56.73275 31003 ft 508 kts 127°
2026-04-23 14:53 24.12379 56.76430 31357 ft 510 kts 127°
2026-04-23 14:53 24.10295 56.79556 31702 ft 512 kts 127°
2026-04-23 14:53 24.08180 56.82727 32042 ft 514 kts 127°
2026-04-23 14:53 24.05960 56.85763 32333 ft 515 kts 136°
2026-04-23 14:54 24.03234 56.88370 32662 ft 514 kts 147°
2026-04-23 14:54 24.00161 56.90341 32975 ft 512 kts 159°
2026-04-23 14:54 23.96824 56.91644 33280 ft 509 kts 170°
2026-04-23 14:54 23.93350 56.92396 33577 ft 509 kts 174°
2026-04-23 14:55 23.89837 56.93050 33889 ft 512 kts 173°
2026-04-23 14:55 23.86368 56.93783 34123 ft 517 kts 172°
2026-04-23 14:55 23.82848 56.94627 34377 ft 520 kts 171°
2026-04-23 14:55 23.79263 56.95553 34678 ft 522 kts 170°
2026-04-23 14:56 23.75728 56.96495 35023 ft 523 kts 170°
2026-04-23 14:56 23.72242 56.97432 35361 ft 524 kts 171°
2026-04-23 14:56 23.68678 56.98392 35685 ft 525 kts 171°
2026-04-23 14:56 23.65131 56.99344 36026 ft 526 kts 171°
2026-04-23 14:57 23.61576 57.00297 36351 ft 527 kts 171°
2026-04-23 14:57 23.58016 57.01250 36678 ft 527 kts 171°
2026-04-23 14:57 23.54419 57.02211 36876 ft 531 kts 171°
2026-04-23 14:57 23.50825 57.03170 36877 ft 532 kts 171°
2026-04-23 14:58 23.43681 57.05068 36888 ft 531 kts 173°
2026-04-23 14:58 23.36415 57.05826 36896 ft 519 kts 188°
2026-04-23 14:59 23.29351 57.04768 36897 ft 507 kts 199°
2026-04-23 14:59 23.22451 57.03112 36889 ft 508 kts 199°
2026-04-23 15:00 23.15555 57.01497 36880 ft 506 kts 199°
2026-04-23 15:00 23.08701 56.99890 36854 ft 505 kts 199°
2026-04-23 15:01 23.01831 56.98278 36848 ft 504 kts 199°
2026-04-23 15:01 22.94970 56.96667 36840 ft 504 kts 199°
2026-04-23 15:02 22.88248 56.94690 36831 ft 492 kts 211°
2026-04-23 15:02 22.82596 56.90813 36822 ft 474 kts 229°
2026-04-23 15:03 22.78474 56.85428 36827 ft 459 kts 245°
2026-04-23 15:03 22.75568 56.79381 36829 ft 457 kts 248°
2026-04-23 15:04 22.72617 56.73254 36856 ft 458 kts 248°
2026-04-23 15:04 22.69661 56.67126 36847 ft 459 kts 248°
2026-04-23 15:05 22.66706 56.61002 36843 ft 459 kts 248°
2026-04-23 15:05 22.63752 56.54882 36830 ft 458 kts 248°
2026-04-23 15:06 22.60812 56.48801 36824 ft 457 kts 248°
2026-04-23 15:06 22.57859 56.42698 36814 ft 456 kts 248°
2026-04-23 15:07 22.54931 56.36654 36807 ft 455 kts 248°
2026-04-23 15:07 22.51981 56.30564 36806 ft 454 kts 248°
2026-04-23 15:08 22.49048 56.24514 36780 ft 454 kts 248°
2026-04-23 15:09 22.44651 56.15459 36772 ft 453 kts 248°
2026-04-23 15:09 22.41737 56.09465 36786 ft 453 kts 248°
2026-04-23 15:10 22.39282 56.04423 36783 ft 453 kts 248°
2026-04-23 15:10 22.35860 55.97417 36780 ft 453 kts 248°
2026-04-23 15:11 22.32895 55.91384 36782 ft 454 kts 248°
2026-04-23 15:11 22.29946 55.85388 36783 ft 453 kts 248°
2026-04-23 15:12 22.26979 55.79360 36784 ft 454 kts 248°
2026-04-23 15:12 22.24019 55.73341 36778 ft 453 kts 248°
2026-04-23 15:13 22.21071 55.67332 36778 ft 453 kts 248°
2026-04-23 15:13 22.18158 55.61301 36783 ft 451 kts 251°
2026-04-23 15:14 22.16073 55.55039 36774 ft 443 kts 260°
2026-04-23 15:14 22.15034 55.48532 36779 ft 438 kts 268°
2026-04-23 15:15 22.14527 55.41983 36773 ft 438 kts 268°
2026-04-23 15:15 22.13986 55.35435 36775 ft 437 kts 268°
2026-04-23 15:16 22.13445 55.28906 36774 ft 437 kts 268°
2026-04-23 15:16 22.12905 55.22402 36769 ft 437 kts 268°
2026-04-23 15:17 22.12360 55.15860 36770 ft 437 kts 268°
2026-04-23 15:17 22.11814 55.09331 36769 ft 437 kts 268°
2026-04-23 15:18 22.11264 55.02799 36767 ft 437 kts 268°
2026-04-23 15:18 22.10714 54.96281 36769 ft 437 kts 268°
2026-04-23 15:19 22.10163 54.89808 36771 ft 437 kts 268°
2026-04-23 15:19 22.09605 54.83268 36771 ft 437 kts 268°
2026-04-23 15:20 22.09136 54.77802 36768 ft 436 kts 268°
2026-04-23 15:20 22.08484 54.70232 36767 ft 436 kts 268°
2026-04-23 15:21 22.07921 54.63718 36770 ft 436 kts 268°
2026-04-23 15:21 22.07353 54.57201 36767 ft 436 kts 267°
2026-04-23 15:22 22.06785 54.50692 36766 ft 436 kts 267°
2026-04-23 15:22 22.06218 54.44228 36769 ft 436 kts 267°
2026-04-23 15:23 22.05642 54.37698 36773 ft 436 kts 267°
2026-04-23 15:23 22.05066 54.31200 36766 ft 435 kts 267°
2026-04-23 15:24 22.04488 54.24703 36763 ft 435 kts 267°
2026-04-23 15:24 22.03908 54.18214 36766 ft 435 kts 267°
2026-04-23 15:25 22.03423 54.12813 36765 ft 435 kts 267°
2026-04-23 15:25 22.02837 54.06306 36762 ft 435 kts 267°
2026-04-23 15:26 22.02155 53.98765 36763 ft 435 kts 267°
2026-04-23 15:26 22.01660 53.93326 36765 ft 435 kts 267°
2026-04-23 15:27 22.01072 53.86881 36769 ft 435 kts 267°
2026-04-23 15:27 22.00476 53.80393 36766 ft 435 kts 267°
2026-04-23 15:28 21.99878 53.73900 36763 ft 435 kts 267°
2026-04-23 15:28 21.99279 53.67421 36768 ft 435 kts 267°
2026-04-23 15:29 21.98675 53.60922 36767 ft 435 kts 267°
2026-04-23 15:29 21.98070 53.54440 36767 ft 435 kts 266°
2026-04-23 15:30 21.97467 53.48002 36766 ft 435 kts 266°
2026-04-23 15:30 21.96855 53.41503 36768 ft 435 kts 266°
2026-04-23 15:31 21.96243 53.35028 36771 ft 435 kts 266°
2026-04-23 15:31 21.95628 53.28541 36767 ft 435 kts 266°
2026-04-23 15:32 21.95011 53.22072 36766 ft 435 kts 266°
2026-04-23 15:32 21.94390 53.15589 36767 ft 435 kts 266°
2026-04-23 15:33 21.93767 53.09109 36766 ft 434 kts 266°
2026-04-23 15:33 21.93149 53.02698 36762 ft 434 kts 266°
2026-04-23 15:34 21.92518 52.96189 36763 ft 435 kts 266°
2026-04-23 15:34 21.91888 52.89715 36763 ft 435 kts 266°
2026-04-23 15:35 21.91254 52.83234 36765 ft 434 kts 266°
2026-04-23 15:35 21.90622 52.76780 36766 ft 434 kts 266°
2026-04-23 15:36 21.90433 52.70282 36764 ft 432 kts 274°
2026-04-23 15:36 21.91206 52.63882 36766 ft 431 kts 282°
2026-04-23 15:37 21.92385 52.57582 36765 ft 431 kts 281°
2026-04-23 15:37 21.93545 52.51244 36767 ft 431 kts 281°
2026-04-23 15:38 21.94710 52.44891 36769 ft 432 kts 281°
2026-04-23 15:38 21.95865 52.38584 36772 ft 432 kts 281°
2026-04-23 15:39 21.97024 52.32243 36773 ft 432 kts 281°
2026-04-23 15:39 21.98183 52.25882 36772 ft 432 kts 281°
2026-04-23 15:40 21.99336 52.19538 36775 ft 431 kts 281°
2026-04-23 15:40 22.00488 52.13184 36778 ft 431 kts 281°
2026-04-23 15:41 22.01630 52.06877 36777 ft 431 kts 281°
2026-04-23 15:41 22.02774 52.00536 36778 ft 431 kts 281°
2026-04-23 15:42 22.03913 51.94214 36780 ft 431 kts 281°
2026-04-23 15:42 22.05058 51.87847 36783 ft 431 kts 281°
2026-04-23 15:43 22.06196 51.81495 36788 ft 431 kts 281°
2026-04-23 15:43 22.07332 51.75149 36789 ft 431 kts 281°
2026-04-23 15:44 22.08466 51.68794 36795 ft 431 kts 281°
2026-04-23 15:44 22.09588 51.62492 36798 ft 431 kts 281°
2026-04-23 15:45 22.10719 51.56127 36799 ft 431 kts 281°